Weather History for KEKN - July, 2013

Change the Weather History Date:

Monday, July 1, 2013

  Actual Average Record
Temperature  
Mean Temperature 72 °F 69 °F  
Max Temperature 81 °F 81 °F 94 °F (1913)
Min Temperature 63 °F 58 °F 32 °F (1988)
Degree Days  
Heating Degree Days 0 1  
Month to date heating degree days 0 1  
Since 1 June heating degree days 12 56  
Since 1 July heating degree days 0 1  
Cooling Degree Days 7 5  
Month to date cooling degree days 7 5  
Year to date cooling degree days 129 120  
Since 1 June cooling degree days 104 97  
Growing Degree Days 22 (Base 50)    
Moisture  
Dew Point 63 °F    
Average Humidity 76    
Maximum Humidity 93    
Minimum Humidity 58    
Precipitation  
Precipitation 0.40 in 0.18 in 1.23 in (1936)
Month to date precipitation 0.40 0.18  
Year to date precipitation 20.96 23.79  
Snow  
Snow 0.00 in - - ()
Month to date snowfall 0.0  
Since 1 September snowfall 77.5  
Snow Depth 0.00 in    
Sea Level Pressure  
Sea Level Pressure 29.91 in    
Wind  
Wind Speed 2 mph (NW)    
Max Wind Speed 12 mph    
Max Gust Speed 13 mph    
Visibility 10 miles    
Events Rain    
T = Trace of Precipitation, MM = Missing Value Source: NWS Daily Summary

Daily Weather History Graph

Daily Weather History Graph

Search for Another Location

Airport or City:

Trip Planner

Search our weather history database for the weather conditions in past years. The results will help you decide how hot, cold, wet, or windy it might be!

Date:

Astronomy

Jul. 01, 2013 Rise Set
Actual Time 5:57 AM EDT 8:48 PM EDT
Civil Twilight 5:26 AM EDT 9:20 PM EDT
Nautical Twilight 4:45 AM EDT 10:00 PM EDT
Astronomical Twilight 3:59 AM EDT 10:46 PM EDT
Moon 1:24 AM EDT (7/1) 3:04 PM EDT (7/1)
Length of Visible Light 15h 54m
Length of Day
14h 50m
Waning Crescent, 35% of the Moon is Illuminated
Jul 1
Waning Crescent
Jul 8
New
Jul 15
First Quarter
Jul 22
Full
Jul 29
Last Quarter

Hourly Weather History & Observations

Time (EDT) Temp. Heat Index Dew Point Humidity Pressure Visibility Wind Dir Wind Speed Gust Speed Precip Events Conditions
12:51 AM 71.1 °F - 62.1 °F 73% 29.85 in 10.0 mi Calm Calm - N/A   Mostly Cloudy
1:51 AM 70.0 °F - 57.9 °F 65% 29.85 in 10.0 mi SE 4.6 mph - N/A   Mostly Cloudy
2:51 AM 66.0 °F - 61.0 °F 84% 29.86 in 10.0 mi Calm Calm - 0.00 in   Overcast
3:51 AM 64.9 °F - 62.1 °F 90% 29.86 in 10.0 mi Calm Calm - 0.00 in Rain Light Rain
4:51 AM 63.0 °F - 61.0 °F 93% 29.88 in 7.0 mi Calm Calm - 0.31 in Rain Rain
5:51 AM 63.0 °F - 61.0 °F 93% 29.90 in 9.0 mi Calm Calm - 0.05 in Rain Rain
6:47 AM 62.6 °F - 60.8 °F 94% 29.94 in 8.0 mi Calm Calm - 0.03 in Rain Light Rain
6:51 AM 63.0 °F - 61.0 °F 93% 29.91 in 10.0 mi Calm Calm - 0.03 in Rain Light Rain
6:58 AM 62.6 °F - 60.8 °F 94% 29.94 in 10.0 mi Calm Calm - 0.00 in   Overcast
7:51 AM 64.0 °F - 61.0 °F 90% 29.92 in 10.0 mi Calm Calm - 0.01 in   Overcast
8:51 AM 66.0 °F - 62.1 °F 87% 29.91 in 10.0 mi North 3.5 mph - N/A   Overcast
9:44 AM 66.2 °F - 62.6 °F 88% 29.95 in 10.0 mi Calm Calm - N/A   Overcast
9:51 AM 66.9 °F - 63.0 °F 87% 29.92 in 10.0 mi Calm Calm - N/A   Overcast
10:25 AM 69.8 °F - 64.4 °F 83% 29.95 in 10.0 mi NNW 3.5 mph - N/A   Overcast
10:51 AM 70.0 °F - 64.9 °F 84% 29.92 in 10.0 mi Calm Calm - N/A   Mostly Cloudy
10:59 AM 71.6 °F - 64.4 °F 78% 29.95 in 10.0 mi Calm Calm - N/A   Mostly Cloudy
11:51 AM 75.0 °F - 64.9 °F 71% 29.91 in 10.0 mi Calm Calm - N/A   Mostly Cloudy
12:51 PM 75.9 °F - 64.0 °F 67% 29.90 in 10.0 mi Calm Calm - N/A   Mostly Cloudy
1:51 PM 79.0 °F - 63.0 °F 58% 29.89 in 10.0 mi SSW 6.9 mph - N/A   Partly Cloudy
2:51 PM 78.1 °F - 64.9 °F 64% 29.89 in 10.0 mi NW 9.2 mph - N/A   Scattered Clouds
3:51 PM 78.1 °F - 64.9 °F 64% 29.90 in 10.0 mi NNW 6.9 mph - N/A   Mostly Cloudy
4:51 PM 80.1 °F 82.3 °F 66.9 °F 64% 29.89 in 10.0 mi Variable 3.5 mph - 0.00 in   Scattered Clouds
5:51 PM 75.9 °F - 68.0 °F 76% 29.90 in 10.0 mi Calm Calm - 0.00 in   Overcast
6:51 PM 75.9 °F - 66.9 °F 74% 29.90 in 10.0 mi Calm Calm - N/A   Mostly Cloudy
7:51 PM 72.0 °F - 66.0 °F 81% 29.94 in 10.0 mi NW 4.6 mph - N/A   Overcast
8:51 PM 71.1 °F - 64.9 °F 81% 29.95 in 10.0 mi West 3.5 mph - N/A   Overcast
9:51 PM 68.0 °F - 64.9 °F 90% 29.97 in 10.0 mi Calm Calm - N/A   Clear
10:51 PM 66.9 °F - 64.0 °F 90% 29.98 in 10.0 mi Calm Calm - N/A   Partly Cloudy
11:51 PM 66.9 °F - 64.0 °F 90% 29.99 in 10.0 mi North 3.5 mph - N/A   Clear